North Wilkesboro, NC

7:09 AM EST on December 12, 2019 (GMT -0500)
Wilkes County

Weather History for KUKF - October, 2019

Change the Weather History Date:

Tuesday, October 22, 2019

  Actual Average Record
Temperature  
Mean Temperature 58 °F -  
Max Temperature 69 °F 68 °F 82 °F (1963)
Min Temperature 46 °F 37 °F 22 °F (1974)
Degree Days  
Heating Degree Days 8    
Growing Degree Days 8 (Base 50)    
Moisture  
Dew Point 59 °F    
Average Humidity 98    
Maximum Humidity 100    
Minimum Humidity 68    
Precipitation  
Precipitation 0.12 in - - ()
Sea Level Pressure  
Sea Level Pressure 29.98 in    
Wind  
Wind Speed 2 mph (SE)    
Max Wind Speed 9 mph    
Max Gust Speed -    
Visibility 6 miles    
Events Rain    
Averages and records for this station are not official NWS values.
T = Trace of Precipitation, MM = Missing Value Source: NWS Daily Summary

Daily Weather History Graph

Daily Weather History Graph

Search for Another Location

Airport or City:

Astronomy

Oct. 22, 2019 Rise Set
Actual Time 7:37 AM EDT 6:39 PM EDT
Civil Twilight 7:11 AM EDT 7:05 PM EDT
Nautical Twilight 6:41 AM EDT 7:35 PM EDT
Astronomical Twilight 6:11 AM EDT 8:05 PM EDT
Moon 1:00 AM EDT (10/22) 3:34 PM EDT (10/22)
Length of Visible Light 11h 54m
Length of Day
11h 02m
Last Quarter, 37% of the Moon is Illuminated
Oct 22
Last Quarter
Oct 27
New
Nov 4
First Quarter
Nov 12
Full
Nov 19
Last Quarter

Hourly Weather History & Observations

Time (EDT) Temp. Windchill Dew Point Humidity Pressure Visibility Wind Dir Wind Speed Gust Speed Precip Events Conditions
12:15 AM 59.0 °F - 59.0 °F 100% 30.09 in 5.0 mi Calm Calm - N/A   Overcast
12:35 AM 59.0 °F - 59.0 °F 100% 30.07 in 5.0 mi Calm Calm - 0.01 in   Overcast
12:55 AM 59.0 °F - 59.0 °F 100% 30.06 in 5.0 mi Calm Calm - 0.01 in   Overcast
1:15 AM 59.0 °F - 59.0 °F 100% 30.07 in 5.0 mi Calm Calm - 0.01 in   Overcast
1:35 AM 59.0 °F - 59.0 °F 100% 30.04 in 5.0 mi ENE 3.5 mph - 0.01 in   Overcast
1:55 AM 59.0 °F - 59.0 °F 100% 30.03 in 5.0 mi Calm Calm - 0.02 in   Overcast
2:15 AM 59.0 °F - 59.0 °F 100% 30.04 in 5.0 mi Calm Calm - N/A   Overcast
2:35 AM 59.0 °F - 59.0 °F 100% 30.02 in 7.0 mi Calm Calm - 0.01 in   Overcast
2:55 AM 59.0 °F - 59.0 °F 100% 30.01 in 7.0 mi East 3.5 mph - 0.02 in   Overcast
3:15 AM 59.0 °F - 59.0 °F 100% 30.03 in 7.0 mi Calm Calm - N/A   Overcast
3:35 AM 59.0 °F - 59.0 °F 100% 30.00 in 7.0 mi East 3.5 mph - 0.01 in   Overcast
3:55 AM 60.8 °F - 60.8 °F 100% 29.99 in 7.0 mi East 3.5 mph - 0.01 in   Light Drizzle
4:15 AM 60.8 °F - 60.8 °F 100% 29.99 in 7.0 mi Calm Calm - N/A   Overcast
4:35 AM 60.8 °F - 60.8 °F 100% 29.98 in 7.0 mi ENE 3.5 mph - N/A   Overcast
4:55 AM 60.8 °F - 60.8 °F 100% 29.98 in 5.0 mi East 3.5 mph - 0.01 in Rain Rain
5:15 AM 60.8 °F - 60.8 °F 100% 29.97 in 2.5 mi ESE 3.5 mph - N/A   Drizzle
5:35 AM 60.8 °F - 60.8 °F 100% 29.97 in 1.8 mi Calm Calm - N/A Rain Heavy Rain
5:55 AM 60.8 °F - 60.8 °F 100% 29.97 in 1.2 mi Calm Calm - N/A Rain Light Rain
6:15 AM 60.8 °F - 60.8 °F 100% 29.97 in 4.0 mi Calm Calm - 0.01 in Rain Heavy Rain
6:35 AM 60.8 °F - 60.8 °F 100% 29.97 in 7.0 mi Calm Calm - 0.01 in   Light Drizzle
6:55 AM 60.8 °F - 60.8 °F 100% 29.97 in 5.0 mi Calm Calm - 0.01 in Rain Light Rain
7:15 AM 60.8 °F - 60.8 °F 100% 29.95 in 7.0 mi Calm Calm - N/A Rain Rain
7:35 AM 60.8 °F - 60.8 °F 100% 29.95 in 7.0 mi NE 3.5 mph - N/A   Overcast
7:55 AM 60.8 °F - 60.8 °F 100% 29.93 in 7.0 mi ESE 3.5 mph - N/A   Overcast
8:35 AM 60.8 °F - 60.8 °F 100% 29.93 in 4.0 mi Calm Calm - 0.01 in Rain Rain
8:55 AM 60.8 °F - 60.8 °F 100% 29.93 in 7.0 mi SE 4.6 mph - 0.03 in Rain Rain
9:15 AM 60.8 °F - 60.8 °F 100% 29.93 in 5.0 mi SE 4.6 mph - 0.01 in   Overcast
9:35 AM 62.6 °F - 62.6 °F 100% 29.92 in 5.0 mi SE 5.8 mph - 0.01 in   Overcast
10:15 AM 62.6 °F - 62.6 °F 100% 29.91 in 5.0 mi SSE 5.8 mph - N/A   Overcast
1:35 PM 64.4 °F - 64.4 °F 100% 29.87 in 10.0 mi SW 4.6 mph - N/A   Mostly Cloudy
1:55 PM 66.2 °F - 64.4 °F 94% 29.86 in 10.0 mi SSW 6.9 mph - N/A   Scattered Clouds
2:15 PM 68.0 °F - 62.6 °F 83% 29.85 in 10.0 mi SSW 3.5 mph - N/A   Clear
2:35 PM 69.8 °F - 59.0 °F 68% 29.85 in 10.0 mi WSW 9.2 mph - N/A   Clear
10:55 PM 51.8 °F - 44.6 °F 76% 30.02 in 10.0 mi Calm Calm - N/A   Clear
11:15 PM 46.4 °F 45.2 °F 46.4 °F 100% 30.02 in 10.0 mi West 3.5 mph - N/A   Clear
11:35 PM 46.4 °F - 46.4 °F 100% 30.02 in 10.0 mi Calm Calm - N/A   Clear